Regional Weather Roundup
Issued by NWS

Home | Current Version | Previous Version | Text Only | Print | Product List | Glossary On
Versions: 1 2 3 4 5 6 7 8 9 10 11 12 13 14 15 16 17 18 19 20 21 22 23 24 25 26 27 28 29 30 31 32 33 34 35 36 37 38 39 40 41 42 43 44 45 46 47 48 49 50
000
ASUS45 KTFX 301104
RWRMT
MONTANA HOURLY WEATHER ROUNDUP
NATIONAL WEATHER SERVICE GREAT FALLS MT
504 AM MDT WED JUL 30 2014

NOTE: "FAIR" INDICATES FEW OR NO CLOUDS BELOW 12000 FEET WITH NO
SIGNIFICANT WEATHER AND/OR OBSTRUCTIONS TO VISIBILITY.

* THESE STATIONS ARE NOT UNDER NWS QUALITY CONTROL. THEY DO NOT
   REPORT WEATHER SUCH AS PRECIPITATION OR FOG.

MTZ001>007-043-301200-
WEST OF THE DIVIDE
CITY           SKY/WX    TMP DP  RH WIND       PRES   REMARKS
KALISPELL      CLEAR     59  48  67 W3        30.11R
MISSOULA       CLEAR     61  41  48 CALM      30.15R
BUTTE          PTCLDY    52  43  72 SE5       30.30S
MULLAN PASS    MOCLDY    70  36  29 S6        30.29R
* LINCOLN      N/A       47  44  89 NW2        N/A
* LOOKOUT PASS N/A       63  41  45 S1         N/A
* POLSON       N/A       64  43  47 N/A        N/A
* RONAN APT    CLEAR     54  48  80 N/A        N/A
* SEELEY LAKE  N/A       47  41  80 NE1        N/A
* THOMP F APT  CLEAR     59  43  56 N6         N/A
* YAAK HILL    N/A       59  45  60 NE1        N/A
$$

MTZ008-052>055-301200-
SOUTHWEST MONTANA
CITY           SKY/WX    TMP DP  RH WIND       PRES   REMARKS
BOZEMAN        PTCLDY    54  46  74 E3        30.25R
DILLON         PTCLDY    54  46  74 SW5       30.27S
W YELLOWSTONE  FOG       46  46 100 CALM      30.40S VSB M1/4
* THREE FORKS  PTCLDY    54  54 100 N/A        N/A
* BOULDER HILL N/A       58  39  49 S6         N/A
* MONIDA PASS  N/A       49  47  93 NW6        N/A
* RAYNOLDS PAS N/A       47  44  89 N1         N/A
* WHITEHALL    N/A       57  47  69 N3G8       N/A
* WISE RIVER   N/A       51  42  71 W3         N/A
$$

MTZ009>010-012-014-046-048-049-054-301200-
EAST SLOPES AND CENTRAL MONTANA
CITY           SKY/WX    TMP DP  RH WIND       PRES   REMARKS
CUT BANK       CLEAR     52  46  80 NW3       30.17S
GREAT FALLS    CLEAR     64  45  50 S12       30.16S
HELENA         CLEAR     61  46  58 CALM      30.20R
MALMSTROM AFB  CLEAR     57  45  64 S7        30.18R
* CONRAD       CLEAR     48  48 100 N/A        N/A
* DEARBORN     N/A       59  45  60 S3         N/A
* EAST GLACIER N/A       54  45  72 NW6        N/A
* MONARCH      N/A       56  41  57 S12        N/A
* ROGERS PASS  N/A       61  43  52 NE1        N/A
* SAINT MARY   N/A       45  43  93 SE3        N/A
* SWEET GRASS  N/A       65  41  42 S16        N/A
$$

MTZ011-013-016-021-035-040-045-047-050-051-301200-
NORTH CENTRAL MONTANA
CITY           SKY/WX    TMP DP  RH WIND       PRES   REMARKS
HAVRE          LGT RAIN  64  45  50 NE7       30.12S
LEWISTOWN      PTCLDY    59  43  56 SE8       30.24R
* CHESTER      N/A       66  41  40 SE6G11     N/A
* DENTON       N/A       62  42  48 S11        N/A
* GEYSER       N/A       52  43  72 SW8        N/A
* JUDITH GAP   N/A       56  46  69 N/A        N/A
* LOMA         N/A       67  42  40 NE9        N/A
$$

MTZ017>020-022>027-061-062-301200-
NORTHEAST MONTANA
CITY           SKY/WX    TMP DP  RH WIND       PRES   REMARKS
GLASGOW        CLEAR     59  54  84 S5        30.18R
GLENDIVE       CLEAR     55  48  77 NW5       30.21R
JORDAN         CLEAR     52  39  61 CALM      30.19S
SIDNEY         CLEAR     55  52  90 NW5       30.19R
WOLF POINT     CLEAR     54  50  86 CALM      30.19R
* BEAVER HILL  N/A       57  53  87 N/A        N/A
* CIRCLE       N/A       54  48  80 N/A        N/A
* LINDSAY DVD  N/A       57  51  80 SW1        N/A
$$

MTZ028>042-056>058-301200-
SOUTHCENTRAL AND SOUTHEAST MONTANA
CITY           SKY/WX    TMP DP  RH WIND       PRES   REMARKS
BAKER          CLEAR     52  48  86 CALM      30.21R
BILLINGS       PTCLDY    64  54  70 SW10      30.23R
LIVINGSTON     PTCLDY    54  46  74 W3        30.27R
MILES CITY     CLEAR     57  45  64 N3        30.19S
* LAUREL APT   PTCLDY    61  48  62 N/A        N/A
* ROUNDUP APT  PTCLDY    63  39  41 N/A        N/A
* ALZADA       N/A       57  53  87 W3         N/A
* HYSHAM       N/A       68  40  36 SE2G7      N/A
* LAME DEER    N/A       66  40  39 SE4        N/A
* REED POINT   N/A       56  53  90 SW1        N/A
* ROSCOE HILL  N/A       63  40  43 SW7        N/A
$$

REGIONAL REPORTS...DAKOTAS
CITY           SKY/WX    TMP DP  RH WIND       PRES   REMARKS
WILLISTON      CLEAR     55  54  96 NE3       30.18R
DICKINSON      CLEAR     52  50  93 CALM      30.17S
CROSBY         N/A       50  50 100 NW3       30.19S
TIOGA          FOG       46  46 100 CALM      30.21S VSB M1/4
WATFORD CITY   FOG       50  50 100 CALM      30.16R VSB 3
BISMARCK       CLEAR     54  30  40 E3        30.17S
GRAND FORKS    FAIR      54  52  93 W6        30.12R
FARGO          CLEAR     54  52  93 CALM      30.13R
BUFFALO SD     CLEAR     54  48  80 W3        30.12R
RAPID CITY     CLEAR     50  48  93 NW3       30.20S
$$

REGIONAL REPORTS...WYOMING/IDAHO/WASHINGTON
CITY           SKY/WX    TMP DP  RH WIND       PRES   REMARKS
GILLETTE       PTCLDY    57  52  83 CALM      30.27S
SHERIDAN       PTCLDY    50  43  77 CALM      30.25R
YELLOWSTONE LA MOCLDY    41  39  93 CALM      30.48R
SALMON         MOCLDY    57  50  78 CALM      30.21S
MULLAN PASS    MOCLDY    70  36  29 S6        30.29S
SAND POINT     CLEAR     54  48  80 CALM      30.04S
SPOKANE        MOCLDY    72  36  27 S7        30.02S

$$



USA.gov is the U.S. government's official web portal to all federal, state and local government web resources and services.